[[{"header":{"parameterUnit":"m.s-1","parameterCategory":1,"la1":30.2991,"la2":30.254,"lo1":-89.0895,"lo2":-89.0444,"dy":0.0017,"dx":0.0017,"nx":28,"ny":28,"refTime":"2025-06-22T09:00:00:Z","depth":0,"parameterNumber":2,"parameterNumberName":"U-component_of_WINDS"},"data":[0,0,0,0,0,0,0,0,0,0,0,0,0,0,0,0,0,0,0,0,0,0,0,0,0,0,0,0,0,0,0,0,0,0,0,0,0,0,0,0,0,0,0,0,0,0,0,0,0,0,0,0,0,0,0,0,0,0,-2.1988,-2.1988,0,-2.194,-2.194,-2.1939,-2.1885,-2.1885,-2.1884,-2.1883,-2.1834,-2.1833,-2.1833,0,0,0,0,0,0,0,0,0,0,0,0,0,-2.2035,-2.2034,-2.1988,-2.1988,-2.1987,-2.194,-2.194,-2.1939,-2.1886,-2.1885,-2.1884,-2.1883,-2.1834,-2.1833,-2.1833,0,0,0,0,0,0,0,0,0,0,0,0,0,-2.2004,-2.2034,-2.1989,-2.1955,-2.1951,-2.1941,-2.194,-2.1939,-2.1886,-2.1885,-2.1883,-2.1882,-2.1834,-2.1834,-2.1833,-2.1851,0,0,-2.183,-2.183,0,0,0,0,0,0,0,0,-2.2006,-2.2002,-2.196,-2.1957,-2.1953,-2.1918,-2.1938,-2.1909,-2.1886,-2.1911,-2.1883,-2.1882,-2.1863,-2.186,-2.1853,-2.1849,-2.1847,-2.183,-2.1829,-2.1829,-2.1829,0,0,0,0,0,0,0,-2.2008,-2.2004,-2.1969,-2.196,-2.1956,-2.1943,-2.1937,-2.1932,-2.1894,-2.1908,-2.1904,-2.19,-2.1861,-2.1854,-2.1852,-2.1846,-2.183,-2.1829,-2.1829,-2.1828,-2.1855,-2.1857,0,0,0,0,0,0,-2.2015,-2.2006,-2.1971,-2.1968,-2.1977,-2.1943,-2.1936,-2.193,-2.1894,-2.1887,-2.1901,-2.1897,-2.1856,-2.1853,-2.185,-2.1869,-2.1829,-2.1828,-2.1828,-2.1854,-2.1856,-2.1857,0,0,0,0,0,0,-2.2016,-2.2012,-2.1973,-2.1986,-2.198,-2.1943,-2.1937,-2.193,-2.1923,-2.1888,-2.1881,-2.1901,-2.1855,-2.1851,-2.1851,-2.1867,-2.1828,-2.1827,-2.1853,-2.1855,-2.1856,-2.1908,0,0,0,0,0,0,-2.2018,-2.2013,-2.2019,-2.1986,-2.1979,-2.1975,-2.1938,-2.193,-2.1922,-2.1917,-2.1886,-2.188,-2.1854,-2.1853,-2.185,-2.1865,-2.1826,-2.1851,-2.1854,-2.1856,-2.1905,-2.1911,-2.1917,0,0,0,0,0,-2.202,-2.2036,-2.202,-2.2016,-2.1986,-2.1976,-2.1972,-2.1941,-2.1923,-2.193,-2.1907,-2.1881,-2.1866,-2.1853,-2.185,-2.1864,-2.185,-2.1853,-2.1856,-2.1902,-2.191,-2.1917,0,0,0,0,0,0,-2.2071,-2.203,-2.2013,-2.2018,-2.2001,-2.1967,-2.1974,-2.1951,-2.1938,-2.1934,-2.1897,-2.189,-2.1896,-2.188,-2.1867,-2.1881,-2.1854,-2.1856,-2.1891,-2.1898,-2.1904,-2.1907,-2.1826,0,0,0,0,0,-2.2083,-2.2078,-2.2043,-2.2051,-2.2044,-2.2011,-2.2005,-2.1983,-2.1964,-2.1956,-2.1933,-2.1916,-2.1907,-2.1902,-2.1891,-2.1903,-2.1896,-2.1911,-2.1917,-2.1923,-2.1925,-2.193,-2.1937,-2.1866,-2.1866,-2.1866,0,0,-2.2107,-2.2085,-2.2084,-2.2061,-2.2045,-2.2041,-2.2005,-2.2001,-2.1998,-2.1955,-2.1954,-2.1938,-2.1915,-2.1922,-2.1923,-2.1909,-2.1943,-2.1926,-2.1931,-2.193,-2.1934,-2.1941,-2.1947,-2.1868,-2.1868,-2.1867,0,0,-2.215,-2.2132,-2.2138,-2.2123,-2.2099,-2.2077,-2.2079,-2.2049,-2.2036,-2.2035,-2.2003,-2.1999,-2.1984,-2.197,-2.1961,-2.2,-2.1976,-2.1998,-2.203,-2.2036,-2.2041,-2.2046,-2.206,-2.2066,-2.2,-2.2,-2.2001,0,-2.2183,-2.2175,-2.2143,-2.2143,-2.2134,-2.2096,-2.2101,-2.2088,-2.2063,-2.2058,-2.2043,-2.2024,-2.2007,-2.2009,-2.2019,-2.2013,-2.2014,-2.2001,-2.2043,-2.2047,-2.2051,-2.2065,-2.207,-2.2003,-2.2003,-2.2003,-2.2002,0,-2.2218,-2.2213,-2.2221,-2.2197,-2.219,-2.2192,-2.2161,-2.2157,-2.2137,-2.2117,-2.2116,-2.2094,-2.2079,-2.2079,-2.2058,-2.2079,-2.2071,-2.205,-2.2022,-2.2062,-2.2073,-2.2078,-2.2007,-2.2006,-2.2005,-2.2005,0,0,-2.2289,-2.225,-2.2253,-2.2243,-2.2215,-2.2211,-2.2212,-2.2198,-2.2195,-2.218,-2.218,-2.217,-2.215,-2.214,-2.2118,-2.2124,-2.2157,-2.2102,-2.2101,-2.2113,-2.2179,-2.2195,-2.2201,-2.2141,-2.2142,-2.2143,-2.2181,0,-2.2327,-2.2326,-2.2299,-2.2306,-2.2302,-2.2267,-2.2268,-2.2251,-2.2233,-2.2227,-2.2207,-2.2201,-2.2176,-2.2169,-2.2173,-2.2152,-2.217,-2.2149,-2.2141,-2.2141,-2.2147,-2.2207,-2.2223,-2.226,-2.2185,-2.2186,-2.2186,0,-2.237,-2.2357,-2.2365,-2.2338,-2.2335,-2.2337,-2.2322,-2.2317,-2.2298,-2.2284,-2.2274,-2.2249,-2.2249,-2.2224,-2.2224,-2.2211,-2.2206,-2.2196,-2.2196,-2.2194,-2.2166,-2.2206,-2.2271,-2.2277,-2.2193,-2.2193,-2.2192,0,-2.2421,-2.2406,-2.2409,-2.2401,-2.237,-2.2372,-2.2359,-2.2339,-2.2333,-2.232,-2.2316,-2.2304,-2.2297,-2.2288,-2.2261,-2.2245,-2.2265,-2.2237,-2.2254,-2.2255,-2.2258,-2.2259,-2.2324,-2.2257,-2.2257,-2.2256,-2.2256,0,-2.2466,-2.2471,-2.2432,-2.2434,-2.244,-2.2408,-2.2415,-2.2399,-2.2382,-2.238,-2.2349,-2.2348,-2.2313,-2.2308,-2.2287,-2.229,-2.2288,-2.2277,-2.2271,-2.2279,-2.2281,-2.2275,-2.2272,-2.2258,-2.2258,-2.2257,-2.2257,0,-2.2523,-2.2497,-2.2498,-2.2469,-2.2462,-2.2468,-2.2443,-2.2443,-2.2424,-2.2423,-2.242,-2.239,-2.2383,-2.2356,-2.2342,-2.2328,-2.2338,-2.2327,-2.2345,-2.2341,-2.2359,-2.2358,-2.2423,-2.243,-2.2359,-2.236,-2.236,0,-2.2553,-2.2557,-2.2529,-2.2526,-2.2514,-2.2509,-2.2503,-2.2473,-2.2468,-2.2447,-2.2451,-2.2441,-2.2432,-2.2423,-2.24,-2.239,-2.2378,-2.2402,-2.2376,-2.2385,-2.2378,-2.2378,-2.2379,-2.2407,-2.2408,-2.2409,-2.2409,0,-2.2608,-2.2596,-2.2588,-2.2576,-2.257,-2.2559,-2.2546,-2.2545,-2.2512,-2.2508,-2.25,-2.2493,-2.248,-2.2472,-2.2458,-2.2445,-2.2422,-2.2418,-2.2421,-2.2429,-2.2439,-2.2434,-2.2359,-2.2416,-2.2415,-2.2415,-2.2414,-2.2414,-2.2653,-2.2655,-2.2636,-2.2628,-2.2616,-2.2605,-2.2605,-2.2586,-2.258,-2.2566,-2.2549,-2.2545,-2.2527,-2.2506,-2.2495,-2.2491,-2.2478,-2.2483,-2.2484,-2.2486,-2.249,-2.244,-2.2489,-2.2489,-2.2488,-2.2488,-2.2488,0,-2.2706,-2.2693,-2.2686,-2.267,-2.2665,-2.2644,-2.263,-2.2626,-2.2623,-2.2608,-2.26,-2.2593,-2.2585,-2.2562,-2.2552,-2.2553,-2.2542,-2.2552,-2.2551,-2.2548,-2.2502,-2.25,-2.256,-2.256,-2.256,-2.256,-2.256,-2.256,-2.2733,-2.2736,-2.2722,-2.2719,-2.2705,-2.27,-2.2694,-2.2684,-2.2672,-2.2665,-2.2659,-2.2644,-2.2627,-2.2615,-2.2607,-2.2601,-2.2598,-2.2611,-2.2601,-2.2558,-2.2551,-2.2545,-2.2543,-2.2611,-2.2611,-2.2648,-2.2648,-2.2648]},{"header":{"parameterUnit":"m.s-1","parameterCategory":1,"la1":30.2991,"la2":30.254,"lo1":-89.0895,"lo2":-89.0444,"dy":0.0017,"dx":0.0017,"nx":28,"ny":28,"refTime":"2025-06-22T09:00:00:Z","depth":0,"parameterNumber":3,"parameterNumberName":"V-component_of_WINDS"},"data":[0,0,0,0,0,0,0,0,0,0,0,0,0,0,0,0,0,0,0,0,0,0,0,0,0,0,0,0,0,0,0,0,0,0,0,0,0,0,0,0,0,0,0,0,0,0,0,0,0,0,0,0,0,0,0,0,0,0,1.3928,1.3927,0,1.3852,1.3851,1.385,1.38,1.38,1.3799,1.3799,1.372,1.3718,1.3716,0,0,0,0,0,0,0,0,0,0,0,0,0,1.4031,1.4029,1.3928,1.3927,1.3926,1.3852,1.3851,1.385,1.38,1.38,1.3799,1.3799,1.372,1.3718,1.3716,0,0,0,0,0,0,0,0,0,0,0,0,0,1.3973,1.4028,1.3928,1.3893,1.3889,1.3852,1.3851,1.385,1.38,1.38,1.3799,1.3799,1.3721,1.3718,1.3716,1.3709,0,0,1.3707,1.3706,0,0,0,0,0,0,0,0,1.3977,1.397,1.3899,1.3895,1.389,1.3835,1.3858,1.3802,1.38,1.3834,1.3799,1.3798,1.3758,1.3753,1.3739,1.3705,1.3702,1.3707,1.3705,1.3704,1.3704,0,0,0,0,0,0,0,1.3981,1.3973,1.3898,1.3898,1.3893,1.388,1.3872,1.3847,1.38,1.3831,1.3827,1.3819,1.3756,1.3742,1.3737,1.37,1.3707,1.3705,1.3703,1.3702,1.3657,1.3658,0,0,0,0,0,0,1.399,1.3976,1.39,1.3896,1.3933,1.3879,1.3869,1.3853,1.38,1.3791,1.3819,1.3817,1.3747,1.374,1.3734,1.3723,1.3704,1.3702,1.37,1.3657,1.3657,1.3658,0,0,0,0,0,0,1.3993,1.3984,1.3904,1.3935,1.3924,1.3878,1.386,1.3852,1.3838,1.3791,1.3782,1.3814,1.3746,1.3738,1.3716,1.3719,1.3701,1.3698,1.3656,1.3657,1.3658,1.37,0,0,0,0,0,0,1.3996,1.3985,1.3982,1.3935,1.3922,1.3887,1.386,1.3851,1.3834,1.383,1.3783,1.3775,1.3745,1.372,1.3713,1.3715,1.3696,1.3656,1.3657,1.3657,1.3698,1.3702,1.3705,0,0,0,0,0,1.4,1.3997,1.3982,1.3973,1.3917,1.3887,1.3879,1.3845,1.3834,1.3831,1.3801,1.3777,1.372,1.3718,1.371,1.3711,1.3655,1.3656,1.3657,1.3696,1.3701,1.3705,0,0,0,0,0,0,1.4044,1.399,1.3973,1.3955,1.3926,1.3879,1.3873,1.3851,1.3824,1.3822,1.378,1.377,1.3752,1.3729,1.3728,1.3702,1.3685,1.3684,1.3717,1.3721,1.3725,1.3731,1.3694,0,0,0,0,0,1.4052,1.4032,1.3986,1.3974,1.396,1.3919,1.3905,1.3881,1.3849,1.3837,1.3805,1.3775,1.375,1.3735,1.3709,1.3695,1.3684,1.3691,1.3695,1.3698,1.3698,1.3689,1.3692,1.3661,1.3661,1.3661,0,0,1.4068,1.4036,1.4025,1.3982,1.3957,1.3937,1.3909,1.3889,1.3874,1.3833,1.381,1.3786,1.375,1.3732,1.3722,1.3712,1.3705,1.37,1.3703,1.37,1.3691,1.3693,1.3696,1.3662,1.3662,1.3661,0,0,1.4086,1.406,1.4048,1.4023,1.3986,1.3959,1.3956,1.3912,1.3895,1.3871,1.384,1.3822,1.378,1.3756,1.3738,1.3749,1.3726,1.3742,1.376,1.3752,1.3755,1.3757,1.376,1.3762,1.3742,1.3742,1.3742,0,1.411,1.4079,1.4044,1.4026,1.4008,1.3971,1.3958,1.3936,1.3892,1.3881,1.3871,1.3818,1.3791,1.3767,1.377,1.3756,1.3752,1.3746,1.3757,1.3759,1.376,1.3763,1.3765,1.3744,1.3744,1.3743,1.3743,0,1.4111,1.409,1.4085,1.4044,1.4025,1.401,1.3972,1.3958,1.3936,1.391,1.3887,1.3854,1.3821,1.3814,1.3792,1.3787,1.3782,1.3765,1.3747,1.3766,1.3768,1.3769,1.3747,1.3746,1.3746,1.3745,0,0,1.4154,1.4095,1.4094,1.4075,1.4032,1.4015,1.3998,1.3967,1.3955,1.3927,1.3912,1.3878,1.3863,1.3843,1.3818,1.3811,1.3822,1.3795,1.3793,1.3801,1.3814,1.3827,1.3829,1.3807,1.3807,1.3807,1.3817,0,1.4166,1.4134,1.4102,1.4082,1.4062,1.4028,1.4013,1.3985,1.3961,1.3941,1.3914,1.3891,1.3872,1.386,1.3852,1.3822,1.3824,1.3821,1.3792,1.3792,1.3802,1.383,1.3843,1.3854,1.3818,1.3818,1.3818,0,1.4175,1.4149,1.4127,1.4086,1.4077,1.4064,1.4034,1.4015,1.3983,1.3965,1.3944,1.3918,1.3899,1.3884,1.3857,1.3856,1.3843,1.3827,1.3826,1.3822,1.3806,1.3826,1.3857,1.3859,1.3819,1.3819,1.3819,0,1.4209,1.4168,1.415,1.4135,1.4087,1.4079,1.4059,1.4026,1.401,1.3983,1.3972,1.3943,1.3928,1.3906,1.3873,1.3865,1.385,1.3832,1.3835,1.3836,1.3833,1.3833,1.3862,1.3825,1.3825,1.3825,1.3825,0,1.4225,1.4213,1.4164,1.4153,1.4139,1.4102,1.4089,1.4066,1.4037,1.4021,1.3989,1.3974,1.3932,1.3912,1.3887,1.3869,1.3862,1.3847,1.3841,1.385,1.3852,1.384,1.3838,1.3825,1.3825,1.3825,1.3825,0,1.426,1.4227,1.4205,1.4161,1.415,1.4142,1.4105,1.4093,1.4067,1.4047,1.404,1.4,1.3975,1.3941,1.3905,1.3888,1.3873,1.3863,1.3885,1.388,1.3886,1.3886,1.3907,1.3908,1.3871,1.3872,1.3872,0,1.4272,1.4262,1.4218,1.4205,1.4186,1.4165,1.4149,1.4113,1.4097,1.4061,1.4053,1.4026,1.4002,1.3965,1.3932,1.3905,1.3893,1.3903,1.3889,1.3899,1.3893,1.3894,1.3893,1.3906,1.3907,1.3907,1.3907,0,1.4297,1.4282,1.4259,1.4231,1.4213,1.4189,1.4164,1.4155,1.4114,1.4098,1.4072,1.4054,1.4019,1.3992,1.3961,1.394,1.3917,1.3912,1.3912,1.3921,1.3934,1.3927,1.3893,1.3912,1.3911,1.3911,1.3911,1.3911,1.4321,1.4311,1.4279,1.4255,1.4232,1.421,1.4196,1.417,1.4148,1.4117,1.4097,1.4073,1.4042,1.3998,1.3978,1.3958,1.3949,1.3948,1.3947,1.3948,1.3951,1.3938,1.3952,1.3952,1.3952,1.3952,1.3952,0,1.4345,1.4323,1.4301,1.4267,1.4249,1.423,1.4201,1.4187,1.4166,1.4139,1.4117,1.4088,1.4063,1.4029,1.4001,1.3992,1.3981,1.3986,1.3986,1.3982,1.3961,1.3964,1.3996,1.3996,1.3996,1.3996,1.3996,1.3996,1.4355,1.4336,1.4317,1.4288,1.4266,1.4242,1.4228,1.4207,1.4185,1.4155,1.4134,1.4112,1.4083,1.4053,1.4029,1.402,1.4011,1.4019,1.4007,1.3987,1.3983,1.398,1.3983,1.4018,1.4018,1.4029,1.4029,1.403]}]]